Date String (YYYY-MM-DD hh:mm:ss) UTC,Instrument flags,absolute air pressure of the measurement (hPa),sample flow rate (lpm),inlet stack bypass flow (lpm),air temperature of the measurement (°C),ambient temperature measured by the external sensor (°C),aerosol sample conditioner tube jacket temperature (°C),OPC LED temperature (°C),internal box temperature (°C),relative humidity of the measurement (%),span deviation,mass concentration of particles derived from Lorenz-Mie calculation of OPC scattering (μg/m³),mass concentration of particles derived from Lorenz-Mie calculation of OPC scattering (μg/m³),mass concentration of particles derived from Lorenz-Mie calculation of OPC scattering (μg/m³)
DateTimeUTC,F1_M11,P_M11,Q1_M11,Q2_M11,T1_M11,T2_M11,T3_M11,T4_M11,T5_M11,U1_M11,ZSPAN_M11,X0_M11,X2_M11,X1_M11
2023-12-12 11:00:00,SystemResetWarning,0833.3,5.00,000.00,022.4,021.4,000.0,030.7,023.7,22.1,0000.0,0007.97,0006.15,0005.97
2023-12-12 11:01:00,SystemResetWarning,0833.3,5.00,000.00,022.4,021.4,000.0,030.7,023.7,22.1,0000.0,0007.97,0006.15,0005.97
2023-12-12 11:02:00,SystemResetWarning,0833.2,5.00,000.00,022.4,021.4,000.0,030.7,023.6,22.1,0000.0,0007.99,0006.16,0005.98
2023-12-12 11:03:00,SystemResetWarning,0833.2,5.00,000.00,022.3,021.4,000.0,030.7,023.7,22.1,0000.0,0007.98,0006.15,0005.98
2023-12-12 11:04:00,SystemResetWarning,0833.2,5.01,000.00,022.3,021.4,000.0,030.7,023.7,22.1,0000.0,0007.91,0006.15,0005.99
2023-12-12 11:05:00,SystemResetWarning,0833.2,5.00,000.00,022.3,021.4,000.0,030.7,023.7,22.1,0000.0,0007.94,0006.16,0005.98
2023-12-12 11:06:00,SystemResetWarning,0833.2,5.00,000.00,022.4,021.4,000.0,030.7,023.7,22.1,0000.0,0007.88,0006.15,0005.98
2023-12-12 11:07:00,SystemResetWarning,0833.2,4.99,000.00,022.3,021.4,000.0,030.7,023.7,22.1,0000.0,0007.87,0006.16,0005.98
2023-12-12 11:08:00,SystemResetWarning,0833.2,4.99,000.00,022.4,021.4,000.0,030.6,023.7,22.1,0000.0,0007.88,0006.17,0005.98
2023-12-12 11:09:00,SystemResetWarning,0833.2,5.00,000.00,022.4,021.4,000.0,030.7,023.6,22.1,0000.0,0007.95,0006.20,0005.99
2023-12-12 11:10:00,SystemResetWarning,0833.2,5.00,000.00,022.3,021.4,000.0,030.7,023.7,22.1,0000.0,0007.95,0006.21,0006.00
2023-12-12 11:11:00,SystemResetWarning,0833.2,5.00,000.00,022.3,021.4,000.0,030.6,023.6,22.1,0000.0,0007.92,0006.20,0006.01
2023-12-12 11:12:00,SystemResetWarning,0833.2,5.00,000.00,022.3,021.4,000.0,030.6,023.6,22.1,0000.0,0007.92,0006.20,0006.02
2023-12-12 11:13:00,SystemResetWarning,0833.2,5.00,000.00,022.3,021.4,000.0,030.6,023.6,22.1,0000.0,0008.00,0006.19,0006.02
2023-12-12 11:14:00,SystemResetWarning,0833.2,5.00,000.00,022.3,021.4,000.0,030.6,023.6,22.1,0000.0,0008.01,0006.20,0006.03
2023-12-12 11:15:00,SystemResetWarning,0833.2,5.00,000.00,022.3,021.4,000.0,030.6,023.6,22.1,0000.0,0008.00,0006.20,0006.04
2023-12-12 11:16:00,SystemResetWarning,0833.2,5.00,000.00,022.3,021.3,000.0,030.6,023.6,22.1,0000.0,0008.84,0006.21,0006.05
2023-12-12 11:17:00,SystemResetWarning,0833.3,5.00,000.00,022.3,021.3,000.0,030.6,023.6,22.1,0000.0,0009.12,0006.22,0006.07
2023-12-12 11:18:00,SystemResetWarning,0833.2,5.00,000.00,022.3,021.3,000.0,030.6,023.6,22.1,0000.0,0009.08,0006.23,0006.08
2023-12-12 11:19:00,SystemResetWarning,0833.2,5.00,000.00,022.3,021.4,000.0,030.6,023.6,22.1,0000.0,0009.04,0006.23,0006.10
2023-12-12 11:20:00,SystemResetWarning,0833.2,5.00,000.00,022.3,021.3,000.0,030.6,023.6,22.1,0000.0,0009.01,0006.23,0006.12
2023-12-12 11:21:00,SystemResetWarning,0833.2,5.00,000.00,022.3,021.4,000.0,030.6,023.6,22.2,0000.0,0009.09,0006.25,0006.13
2023-12-12 11:22:00,SystemResetWarning,0833.2,5.00,000.00,022.3,021.4,000.0,030.6,023.6,22.1,0000.0,0009.11,0006.25,0006.12
2023-12-12 11:23:00,SystemResetWarning,0833.2,5.00,000.00,022.3,021.3,000.0,030.6,023.6,22.1,0000.0,0009.12,0006.25,0006.12
2023-12-12 11:24:00,SystemResetWarning,0833.2,5.00,000.00,022.3,021.3,000.0,030.6,023.6,22.2,0000.0,0008.98,0006.22,0006.09
2023-12-12 11:25:00,SystemResetWarning,0833.2,5.00,000.00,022.3,021.4,000.0,030.6,023.6,22.2,0000.0,0008.96,0006.21,0006.08
2023-12-12 11:26:00,SystemResetWarning,0833.2,5.00,000.00,022.3,021.3,000.0,030.6,023.6,22.1,0000.0,0008.97,0006.21,0006.07
2023-12-12 11:27:00,SystemResetWarning,0833.2,5.00,000.00,022.3,021.3,000.0,030.6,023.6,22.1,0000.0,0008.34,0006.15,0006.02
2023-12-12 11:28:00,SystemResetWarning,0833.2,5.00,000.00,022.3,021.4,000.0,030.6,023.6,22.1,0000.0,0007.74,0006.08,0005.96
2023-12-12 11:29:00,SystemResetWarning,0833.2,5.00,000.00,022.3,021.4,000.0,030.6,023.6,22.1,0000.0,0007.75,0006.03,0005.90
2023-12-12 11:30:00,SystemResetWarning,0833.2,5.00,000.00,022.3,021.3,000.0,030.6,023.6,22.2,0000.0,0007.70,0005.96,0005.83
2023-12-12 11:31:00,SystemResetWarning,0833.2,5.01,000.00,022.3,021.3,000.0,030.6,023.6,22.1,0000.0,0007.76,0005.94,0005.81
2023-12-12 11:32:00,SystemResetWarning,0833.1,5.00,000.00,022.3,021.3,000.0,030.6,023.6,22.2,0000.0,0008.41,0005.92,0005.79
2023-12-12 11:33:00,SystemResetWarning,0833.1,5.00,000.00,022.3,021.3,000.0,030.6,023.6,22.2,0000.0,0008.40,0005.93,0005.80
2023-12-12 11:34:00,SystemResetWarning,0833.1,5.00,000.00,022.3,021.4,000.0,030.6,023.6,22.2,0000.0,0008.42,0005.94,0005.81
2023-12-12 11:35:00,SystemResetWarning,0833.1,5.00,000.00,022.3,021.4,000.0,030.6,023.6,22.1,0000.0,0008.47,0005.97,0005.82
2023-12-12 11:36:00,SystemResetWarning,0833.2,5.00,000.00,022.3,021.4,000.0,030.6,023.6,22.2,0000.0,0008.49,0006.00,0005.85
2023-12-12 11:37:00,SystemResetWarning,0833.1,4.99,000.00,022.3,021.4,000.0,030.6,023.6,22.2,0000.0,0008.51,0006.00,0005.85
2023-12-12 11:38:00,SystemResetWarning,0833.1,5.00,000.00,022.3,021.4,000.0,030.6,023.6,22.2,0000.0,0008.52,0006.02,0005.86
2023-12-12 11:39:00,SystemResetWarning,0833.1,5.00,000.00,022.3,021.4,000.0,030.6,023.6,22.2,0000.0,0008.59,0006.09,0005.92
2023-12-12 11:40:00,SystemResetWarning,0833.1,5.00,000.00,022.3,021.4,000.0,030.6,023.6,22.2,0000.0,0008.60,0006.14,0005.97
2023-12-12 11:41:00,SystemResetWarning,0833.0,5.00,000.00,022.3,021.4,000.0,030.6,023.6,22.2,0000.0,0008.64,0006.20,0006.03
2023-12-12 11:42:00,SystemResetWarning,0833.1,5.00,000.00,022.3,021.4,000.0,030.6,023.6,22.2,0000.0,0008.68,0006.23,0006.07
2023-12-12 11:43:00,SystemResetWarning,0833.1,5.00,000.00,022.3,021.4,000.0,030.6,023.6,22.2,0000.0,0008.17,0006.24,0006.07
2023-12-12 11:44:00,SystemResetWarning,0833.0,5.00,000.00,022.3,021.4,000.0,030.6,023.6,22.1,0000.0,0007.91,0006.24,0006.07
2023-12-12 11:45:00,SystemResetWarning,0833.2,5.00,000.00,022.3,021.4,000.0,030.6,023.6,22.1,0000.0,0007.90,0006.22,0006.04
2023-12-12 11:46:00,SystemResetWarning,0833.2,5.00,000.00,022.3,021.4,000.0,030.6,023.6,22.1,0000.0,0007.84,0006.18,0006.01
2023-12-12 11:47:00,SystemResetWarning,0833.1,5.01,000.00,022.3,021.4,000.0,030.6,023.6,22.1,0000.0,0007.81,0006.15,0005.98
2023-12-12 11:48:00,SystemResetWarning,0833.0,5.01,000.00,022.3,021.4,000.0,030.6,023.6,22.1,0000.0,0007.79,0006.14,0005.97
2023-12-12 11:49:00,SystemResetWarning,0833.0,5.01,000.00,022.3,021.4,000.0,030.6,023.7,22.1,0000.0,0007.77,0006.13,0005.97
2023-12-12 11:50:00,SystemResetWarning,0833.0,4.99,000.00,022.3,021.4,000.0,030.6,023.6,22.1,0000.0,0007.78,0006.13,0005.97
2023-12-12 11:51:00,SystemResetWarning,0833.0,4.98,000.00,022.3,021.4,000.0,030.6,023.6,22.2,0000.0,0007.76,0006.14,0005.99
2023-12-12 11:52:00,SystemResetWarning,0833.2,5.01,000.00,022.3,021.4,000.0,030.6,023.6,22.2,0000.0,0007.76,0006.15,0006.00
2023-12-12 11:53:00,SystemResetWarning,0833.1,5.01,000.00,022.3,021.4,000.0,030.6,023.6,22.2,0000.0,0007.76,0006.16,0006.01
2023-12-12 11:54:00,SystemResetWarning,0833.3,4.99,000.00,022.3,021.4,000.0,030.6,023.7,22.2,0000.0,0007.75,0006.16,0006.01
2023-12-12 11:55:00,SystemResetWarning,0833.0,5.00,000.00,022.3,021.4,000.0,030.6,023.6,22.2,0000.0,0007.71,0006.14,0006.02
2023-12-12 11:56:00,SystemResetWarning,0833.0,4.99,000.00,022.3,021.4,000.0,030.6,023.6,22.2,0000.0,0007.71,0006.18,0006.06
2023-12-12 11:57:00,SystemResetWarning,0833.0,5.00,000.00,022.3,021.4,000.0,030.6,023.7,22.2,0000.0,0007.76,0006.23,0006.12
2023-12-12 11:58:00,SystemResetWarning,0833.0,5.01,000.00,022.3,021.4,000.0,030.6,023.7,22.2,0000.0,0007.78,0006.27,0006.17
2023-12-12 11:59:00,SystemResetWarning,0833.0,5.00,000.00,022.3,021.4,000.0,030.6,023.7,22.2,0000.0,0007.82,0006.31,0006.20
